ETNN

Details ICAO ETNN
Name NORVENICH
Region Germany - Military
Timezone Europe/Berlin (UTC+2.0)
Plans Departing 18
Arriving 11
Stats Elevation 386 ft / 118 m (AMSL)
Location 50.831161° 6.658110°
Runways 1
Magnetic Variation 1.846° E
Sunrise 2018-05-26 03:32:14 UTC / 2018-05-26 05:32:14 Local
Sunset 2018-05-26 19:31:28 UTC / 2018-05-26 21:31:28 Local
Advertisement - Login to hide

Runways

ID Width Length Bearing (true) Bearing (mag) Surface Threshold Offset Overrun Length
07 148 ft / 45 m 7,980 ft / 2,432 m 66.61° 64.76° Asphalt 0 ft / 0 m 902 ft / 275 m
25 148 ft / 45 m 7,980 ft / 2,432 m 246.63° 244.78° Asphalt 0 ft / 0 m 902 ft / 275 m

Map

Weather


0- 5 10 15 20 25 30 35+ Temperature / ° C

Clouds and Precipitation
Forecast for 2018-05-26 00:00 UTC. Updated an hour ago

Ground ~20,000 ft ~40,000 ft Winds

METAR

ETNN 260020Z AUTO 17004KT 9999 // ////// 16/14 Q1019 ///

TAF

Not found

Frequencies

Tower 136.20 MHz TWR
Approach 128.50 MHz LANGEN CON
Approach 123.30 MHz RADAR
Tower 122.10 MHz TWR
Approach 126.32 MHz LANGEN CON
Approach 129.85 MHz RADAR
Warning: Do not use this data for real-world aviation or navigation. No guarantee of current accuracy is given.